www.pogodaiklimat.ru

Погода и климат >> Архив погоды >> Таиланд >> Бангкок


АРХИВ ПОГОДЫ в Бангкоке

Время (UTC), дата Ветер
(напр.,м/с)
 
Видим.   Явления Облачность Т
(С)
Тd
(С)
f
(%)
Тe
(С)
Тes
(С)
Комфортность P
(гПа)
Po
(гПа)
Тmin
(С)
Tmax
(С)
R
(мм)
R24
(мм)
S
(см)
18 16.08 штиль 0 10 км 10/5 600 м
[Cu med, cong Ac As]
+29.0 +25.2 80 +42 +42 опасность
перегрева
1006.7 1006.3
21 16.08 штиль 0 10 км 10/5 600 м
[Cu med, cong Ac As]
+28.7 +24.5 78 +41 +41 опасность
перегрева
1006.1 1005.6
00 17.08 штиль 0 10 км 10/5 600 м
[Cu med, cong Ac As]
+27.2 +24.8 87 +39 +39 очень
душно
1007.0 1006.5 +27.2
03 17.08 ЮВ 2 10 км 8/3 600 м
[Cu med, cong Ac lent Cs]
+30.8 +24.4 69 +43 +50 опасность
перегрева
1008.6 1008.1
06 17.08 ЮЗ 4 10 км 10/5 600 м
[Cu med, cong Ac As]
+31.5 +24.4 66 +44 +46 опасность
перегрева
1007.5 1007.1
09 17.08 З 3 10 км 10/5 600 м
[Cu med, cong Ac As]
+31.3 +24.9 69 +45 +46 опасность
перегрева
1006.2 1005.7
12 17.08 штиль 0 10 км 10/5 600 м
[Cu med, cong Ac As]
+29.4 +25.0 77 +42 +42 опасность
перегрева
1006.3 1005.8 +33.3
15 17.08 штиль 0 10 км 6/0
[Cs]
+29.3 +23.8 72 +40 +40 очень
душно
1007.6 1007.1
18 17.08 штиль 0 10 км 6/0
[Cs]
+28.3 +23.0 73 +38 +38 очень
душно
1009.0 1008.5
21 17.08 штиль 0 10 км 6/0
[Cs]
+26.5 +23.6 84 +36 +36 очень
душно
1008.5 1008.0
00 18.08 штиль 0 10 км 6/0
[Cs]
+28.3 +23.8 77 +39 +40 очень
душно
1009.9 1009.4 +27.6
03 18.08 З 3 10 км 8/3 600 м
[Cu hum Ac lent Cs]
+31.7 +24.3 65 +44 +50 опасность
перегрева
1010.7 1010.2
06 18.08 З 2 10 км 10/5 600 м
[Cu med, cong Ac As]
+33.0 +23.3 57 +44 +47 опасность
перегрева
1009.2 1008.7
09 18.08 В 5 10 км 6/0
[Cs]
+33.4 +24.6 60 +46 +50 опасность
перегрева
1007.1 1006.7
12 18.08 штиль 0 10 км 6/0
[Cs]
+30.0 +25.2 76 +44 +44 опасность
перегрева
1008.3 1007.8 +34.2
15 18.08 штиль 0 10 км 6/0
[Cs]
+29.0 +26.2 85 +44 +44 опасность
перегрева
1010.5 1010.1
18 18.08 штиль 0 10 км 6/0
[Cs]
+28.4 +25.7 85 +42 +42 опасность
перегрева
1010.1 1009.6
21 18.08 штиль 0 10 км 6/0
[Cs]
+28.0 +25.4 86 +41 +41 опасность
перегрева
1009.6 1009.1
00 19.08 штиль 0 10 км 6/0
[Cs]
+28.2 +24.0 78 +39 +40 очень
душно
1008.6 1008.1 +27.8
03 19.08 ЮЗ 3 10 км 6/0
[Cs]
+31.5 +22.8 60 +41 +53 опасность
перегрева
1009.7 1009.2
06 19.08 штиль 0 10 км 8/3 600 м
[Cu hum Ac und Cs]
+33.2 +22.8 55 +43 +56 опасность
перегрева
1007.4 1006.9
09 19.08 ЮВ 2 10 км 8/5 600 м
[Cu med, cong Ac lent Cs]
+34.2 +26.0 62 +50 +52 опасность
перегрева
1005.6 1005.1
12 19.08 штиль 0 10 км 8/3 600 м
[Cu hum Ac lent Cs]
+31.5 +25.1 69 +45 +45 опасность
перегрева
1005.4 1004.9 +35.3
15 19.08 штиль 0 10 км 10/5 600 м
[Cu med, cong Ac As]
+29.7 +25.8 80 +44 +44 опасность
перегрева
1009.3 1008.8
18 19.08 штиль 0 10 км 10/5 600 м
[Cu med, cong Ac As]
+28.7 +26.3 87 +44 +44 опасность
перегрева
1008.1 1007.6
21 19.08 штиль 0 10 км 6/0
[Cs]
+28.0 +24.6 82 +40 +40 очень
душно
1006.6 1006.1
00 20.08 штиль 0 10 км 10/5 600 м
[Cu med, cong Ac As]
+27.4 +25.1 87 +39 +40 очень
душно
1007.4 1006.9 +27.3
03 20.08 З 2 10 км 10/5 600 м
[Cu med, cong Ac As]
+31.7 +24.4 65 +44 +46 опасность
перегрева
1007.1 1006.7
06 20.08 ЮВ 4 10 км 10/5 600 м
[Cu med, cong Ac As]
+32.3 +25.1 66 +46 +48 опасность
перегрева
1006.5 1006.0
09 20.08 З 10 10 км {дождь} 10/5 600 м
[Cu med, cong Ac As]
+27.2 +24.0 83 +38 +38 очень
душно
1005.7 1005.2 2
12 20.08 ЮВ 2 10 км {дождь} 10/5 600 м
[Cu med, cong Ac As]
+26.2 +25.9 98 +39 +39 очень
душно
1006.2 1005.7 +35.5 10
15 20.08 штиль 0 10 км 10/5 600 м
[Cu med, cong Ac As]
+26.5 +26.1 98 +40 +40 очень
душно
1007.5 1007.0
18 20.08 штиль 0 10 км 10/5 600 м
[Cu med, cong Ac As]
+26.6 +25.7 95 +39 +39 очень
душно
1006.2 1005.7
21 20.08 штиль 0 10 км 10/5 600 м
[Cu med, cong Ac As]
+26.6 +24.7 89 +38 +38 очень
душно
1005.5 1005.0
00 21.08 штиль 0 10 км 10/5 600 м
[Cu med, cong Ac As]
+27.0 +24.8 88 +39 +39 очень
душно
1006.2 1005.7 +26.2
03 21.08 Ю 2 10 км 10/5 600 м
[Cu med, cong Ac As]
+30.5 +24.3 70 +43 +45 опасность
перегрева
1008.7 1008.2
06 21.08 ЮВ 2 10 км 10/5 600 м
[Cu med, cong Ac As]
+32.5 +23.3 58 +43 +46 опасность
перегрева
1005.9 1005.4
09 21.08 В 2 10 км 8/3 600 м
[Cu med, cong Ac trans Cs]
+33.0 +23.5 58 +44 +48 опасность
перегрева
1004.4 1003.9
12 21.08 ЮВ 1 10 км 8/3 600 м
[Cu med, cong Ac und Cs]
+29.8 +24.7 74 +42 +42 опасность
перегрева
1005.5 1005.0 +37.1
15 21.08 З 2 10 км 6/3 600 м
[Cu med, cong Ac trans Cs]
+29.0 +23.9 74 +40 +40 очень
душно
1008.2 1007.8
18 21.08 З 1 10 км 6/3 600 м
[Cu med, cong Ac trans Cs]
+27.9 +24.0 79 +39 +39 очень
душно
1007.4 1007.0
21 21.08 Ю 1 10 км 6/3 600 м
[Cu med, cong Ac und Cs]
+27.5 +23.4 78 +37 +37 очень
душно
1006.8 1006.3
00 22.08 штиль 0 10 км 8/3 600 м
[Cu med, cong Ac und Cs]
+27.8 +24.0 80 +39 +39 очень
душно
1008.2 1007.7 +27.5
03 22.08 Ю 5 10 км 10/4 600 м
[Cu med, cong Ac As]
+30.5 +24.7 71 +43 +45 опасность
перегрева
1009.0 1008.5
06 22.08 ЮВ 3 10 км 8/4 600 м
[Cu med, cong Ac cuf Cs]
+32.0 +24.1 63 +44 +51 опасность
перегрева
1007.3 1006.8
09 22.08 ЮВ 5 10 км 8/3 600 м
[Cu med, cong Ac trans Cs]
+33.0 +25.3 64 +47 +49 опасность
перегрева
1005.6 1005.1
12 22.08 штиль 0 8000 м слаб. дождь 10/4 600 м
[Cu med, cong Ac As]
+25.6 +24.7 95 +36 +36 очень
душно
1006.7 1006.2 +33.9 15
15 22.08 штиль 0 8000 м слаб. дождь {гроза} 10/4 600 м
[Cu med, cong Ac As]
+26.5 +26.1 98 +40 +40 очень
душно
1008.7 1008.2 3
18 22.08 штиль 0 10 км {гроза, дождь} 8/3 600 м
[Cu med, cong Ac As Cs]
+27.0 +26.4 97 +41 +41 опасность
перегрева
1008.2 1007.7 0.5
21 22.08 штиль 0 10 км 8/3 600 м
[Cu med, cong Ac As Cs]
+26.5 +26.1 98 +40 +40 очень
душно
1007.8 1007.3
00 23.08 штиль 0 10 км {дождь} 10/4 600 м
[Cu med, cong Ac As]
+26.6 +26.2 98 +40 +40 очень
душно
1008.6 1008.1 +25.5 0.6
03 23.08 З 3 10 км 10/4 600 м
[Cu med, cong Ac As]
+30.5 +25.6 75 +45 +47 опасность
перегрева
1009.5 1009.0
06 23.08 ЮЗ 3 10 км 10/5 600 м
[Cu med, cong Ac As]
+32.0 +24.0 63 +44 +47 опасность
перегрева
1007.3 1006.8
09 23.08 ЮВ 3 10 км 10/5 600 м
[Cu med, cong Ac As]
+32.6 +25.1 65 +47 +47 опасность
перегрева
1006.4 1005.9
12 23.08 штиль 0 10 км 10/5 600 м
[Cu med, cong Ac As]
+29.6 +25.8 80 +44 +44 опасность
перегрева
1007.4 1006.9 +32.5
15 23.08 штиль 0 10 км 10/5 600 м
[Cu med, cong Ac As]
+28.8 +25.8 84 +43 +43 опасность
перегрева
1009.8 1009.3

 

Местоположение метеостанции Бангкок (Таиланд): широта 13.73 долгота 100.56 высота над уровнем моря 4 м.

В архиве по умолчанию представлена погода в Бангкоке за последнюю неделю. Архивные данные за месяц целиком и за предыдущие месяцы, начиная с января 2011 года, Вы можете получить, выбрав интересующий диапазон дат из раскрывающегося списка и нажав кнопку "Ввод!".


*Определитесь, кто Вы:
робот инопланетянин человек

Внимание! Время в таблицах - всемирное. Для получения местного времени необходимо прибавить поправку, которая равна 7 ч.

Смотрите также архив погоды в соседних городах и на ближайших метеорологических станциях:

Погода в Бангкоке 2 (Таиланд) (4 км)
Погода в Бангна Агромете (Таиланд) (9 км)
Погода в Дон Муанг (Таиланд) (22 км)
Погода в Аэропорту Суварнабхуми (Таиланд) (22 км)
Погода в Самутрудкан Агромете (Таиланд) (31 км)
Погода в Бангкок Пилот (Таиланд) (39 км)
Погода в Патхумтхани (Таиланд) (42 км)
Погода в Чонбури (Таиланд) (61 км)
Погода в Ратбури (Таиланд) (61 км)
Погода в Самутсонгкхраме (Таиланд) (67 км)

Пояснения к столбцам:

Ветер - указаны скорость ветра в м/с - средняя за 10 мин, порывы в срок и между сроками (в фигурных скобках) и направление, откуда дует ветер: С - северный, СВ - северо-восточный, В - восточный, ЮВ - юго-восточный, Ю - южный, ЮЗ - юго-западный, З - западный, СЗ - северо-западный.
Видимость - горизонтальная дальность видимости в метрах или километрах. При видимости от 1 до 10 км при отсутствии осадков обычно наблюдается дымка, при ухудшении видимости до 1 км и менее - туман. В сухую погоду видимость может ухудшаться дымом, пылью или мглою.
Явления - указаны атмосферные явления, наблюдавшиеся в срок или в последний час перед сроком; фигурными скобками обозначены явления, наблюдавшиеся между сроками (за 1-3 часа до срока); квадратными скобками обозначены град или гололедные отложения с указанием их диаметра в мм.
Облачность - указаны через наклонную черту общая и нижняя облачность в баллах и высота нижней границы облаков в метрах; квадратными скобками обозначены формы облаков: Ci - перистые, Cs - перисто-слоистые, Cc - перисто-кучевые, Ac - высококучевые, As - высокослоистые, Sc - слоисто-кучевые, Ns - слоисто-дождевые, Cu - кучевые, Cb - кучево-дождевые. Подробнее классификацию облаков см. в Атласе облаков (PDF).
T - Температура воздуха - температура, измеренная на высоте 2 м над землей.
Td - Температура точки росы - температура, при понижении до которой содержащийся в воздухе водяной пар достигнет насыщения.
f - Относительная влажность воздуха - влажноcть воздуха, измеренная на высоте 2 м над землей.
Te - Эффективная температура - температура, которую ощущает одетый по сезону человек в тени. Характеристика душности погоды. При расчете учитывается влияние влажности воздуха и скорости ветра на теплоощущения человека.
Tes - Эффективная температура на солнце - температура, которую ощущает человек, с поправкой на солнечный нагрев. Характеристика знойности погоды. Зависит от высоты солнца над горизонтом, облачности и скорости ветра. Ночью, в пасмурную погоду, а также при ветре 12 м/с и более поправка равна нулю.
P - Атмосферное давление - приведенное к уровню моря атмосферное давление.
Po - Атмосферное давление - измеренное на уровне метеостанции атмосферное давление.
Tmin - Минимальная температура - минимум температуры воздуха на высоте 2 м над землей.
Tmax - Максимальная температура - максимум температуры воздуха на высоте 2 м над землей.
R - Количество осадков - Количество выпавших осадков за период времени, мм. При наведении курсора мыши на число - период времени, за который выпало указанное количество осадков.
R24 - Количество осадков - Количество выпавших осадков за 24 часа, мм.
S - Снежный покров - Высота снежного покрова, см. При наведении курсора мыши на число - состояние снежного покрова и степень покрытия местности в баллах.